User: anonymous   Login
Location: Unspecified
(0.0000°N, 0.0000°E)
Time: 18:40:41
(UTC+02:00)
Language:

OPAL - Orbit

View from above orbital plane
View from above orbital plane
View from above satellite
View from above satellite

Ground track
Ground track

The orbit data is extracted from the following two-line orbital elements,

1 26063U 00004C   16206.40299785 -.00000007  00000-0  17624-4 0  9992
2 26063 100.1897 143.5999 0036784 151.5836 208.7361 14.36624709864313
Epoch (UTC): 24 July 2016 09:40:19
Eccentricity: 0.0036784
inclination: 100.1897°
perigee height: 743 km
apogee height: 796 km
right ascension of ascending node: 143.5999°
argument of perigee: 151.5836°
revolutions per day: 14.36624709
mean anomaly at epoch: 208.7361°
orbit number at epoch: 86431

The dashed part of the orbit path shows where the satellite is in the earth's shadow,  

DLR